sat.trackr.live / text

‹ back to catalog

STARLINK-30320

NORAD 57678 · 2023-124R

PAYLOAD ACTIVE UNKNOWN

§ Identity

Operator
Country
US
Launch date
2023-08-22
Launch site
AFWTR
Launch vehicle
Mass (kg)
RCS (m²)

Purposes: comms

External: N2YO · Heavens-Above · Gunter

§ Orbital elements

Epoch: 2026-05-25T00:00:02.000160Z

Period
93.85 min
Inclination
53.1607°
Eccentricity
0.0001587
Mean motion
15.34368286 rev/d
Perigee alt
461.7 km
Apogee alt
463.9 km
Semi-major
6,840.9 km
B*
1.7346e-3
RAAN
199.4763°
Arg perigee
72.9108°
Mean anomaly
277.8929°
Rev number
587

§ Raw data

STARLINK-303201 57678U 23124R   26145.00002315  .00058629  00000+0  17346-2 0  99962 57678  53.1607 199.4763 0001587  72.9108 277.8929 15.34368286  5874

JSON: /api/v1/satellites/57678 · /tle

For live sub-satellite position, see the globe view (requires WebGL).

§ Visibility from observer

Set your observer location to see the next 7 days of passes ≥ 10°. The values pass through the URL so the page stays shareable.

No JS? Fill the form by hand. The geolocation button needs JavaScript.